Regional Weather Roundup
Issued by NWS Raleigh/Durham, NC

Home | Current Version | Previous Version | Text Only | Print | Product List | Glossary On
Versions: 1 2 3 4 5 6 7 8 9 10 11 12 13 14 15 16 17 18 19 20 21 22 23 24 25 26 27 28
000
ASUS42 KRAH 261710
RWRRAH
NORTH CAROLINA WEATHER ROUNDUP
NATIONAL WEATHER SERVICE RALEIGH NC
100 PM EDT THU APR 26 2018

NOTE: "FAIR" INDICATES FEW OR NO CLOUDS BELOW 12,000 FEET WITH NO
SIGNIFICANT WEATHER AND/OR OBSTRUCTIONS TO VISIBILITY.

NCZ001-053-055-056-065-067-261800-
WESTERN NORTH CAROLINA

CITY           SKY/WX    TMP DP  RH WIND       PRES   REMARKS
ASHEVILLE      CLOUDY    60  48  64 S8        29.90F
JEFFERSON      CLOUDY    57  42  56 CALM      29.91F
MORGANTON      CLOUDY    67  48  50 SE7       29.92F
HICKORY        CLOUDY    67  47  48 NE5       29.88F
RUTHERFORDTON  CLOUDY    66  49  53 CALM      29.89F
MOUNT AIRY     FAIR      67  39  35 CALM      29.91F
BOONE          PTSUNNY   60  46  61 S5        29.92F
$$

NCZ021-022-025-041-071-084-088-261800-
CENTRAL NORTH CAROLINA

CITY           SKY/WX    TMP DP  RH WIND       PRES   REMARKS
CHARLOTTE      PTSUNNY   68  49  50 CALM      29.89F
GREENSBORO     PTSUNNY   66  46  48 W5        29.89F
WINSTON-SALEM  PTSUNNY   67  47  48 SE7       29.90F
RALEIGH-DURHAM PTSUNNY   69  55  60 VRB3      29.89F
FORT BRAGG     NOT AVBL
FAYETTEVILLE   FAIR      74  54  49 SE8       29.86F
BURLINGTON     CLOUDY    70  48  45 SE6       29.88F
LAURINBURG     PTSUNNY   73  56  54 E5        29.87F
$$

NCZ011-015-027-028-043-044-047-080-103-261800-
NORTHEASTERN NORTH CAROLINA

CITY           SKY/WX    TMP DP  RH WIND       PRES   REMARKS
ROCKY MT-WILSO PTSUNNY   72  57  59 VRB3      29.89S
GREENVILLE     FAIR      73  54  49 S6        29.90F
WASHINGTON     CLOUDY    76  56  50 CALM      29.88F
ELIZABETH CITY FAIR      69  56  62 VRB5      29.90S
MANTEO         CLOUDY    61  47  62 E10       29.92S
CAPE HATTERAS  FAIR      72  57  59 SE13      29.91F
$$

NCZ078-087-090-091-093-098-101-261800-
SOUTHEASTERN NORTH CAROLINA

CITY           SKY/WX    TMP DP  RH WIND       PRES   REMARKS
LUMBERTON      FAIR      75  58  55 VRB5      29.86F
GOLDSBORO      NOT AVBL
KINSTON        PTSUNNY   75  54  46 S9        29.89S
KENANSVILLE    FAIR      75  57  53 SW3       29.88S
NEW BERN       PTSUNNY   73  59  61 SE6       29.89S
CHERRY POINT   PTSUNNY   78  61  55 SW10G18   29.89S
BEAUFORT       FAIR      72  60  66 SE9       29.89F
JACKSONVILLE   PTSUNNY   75  58  55 SE7       29.87F
WILMINGTON     FAIR      77  56  48 VRB6G16   29.87F
$$





USA.gov is the U.S. government's official web portal to all federal, state and local government web resources and services.